Theta_e
285 285 285 285 285 286 285 285 286 285 287 286 286 287 286 287 288 287 287 287 287 287 286 286 286 286 286 285 285 285 284 284 284 284 284 284 283 283 283 282 282 282
285 286 288 288 288 287 287 286 286 286 287 286 287 286 287 287 287 286 286 286 286 286 285 285 285 285 285 284 284 284 284 283 283 285 283 282 282 282 282 282 281 282
285 285 286 286 286 287 287 287 287 286 286 286 286 286 287 286 286 286 285 286 285 285 285 285 284 284 284 284 284 283 283 282 282 283 283 282 282 281 281 281 281 280
286 286 286 286 286 286 286 286 286 286 286 286 285 286 286 286 285 285 284 286 284 284 284 284 284 284 283 283 283 283 282 282 282 282 281 281 281 281 280 280 280 279
286 286 285 285 286 286 285 285 285 285 284 285 284 285 285 284 284 284 284 284 283 283 284 283 283 283 283 283 282 282 282 282 281 281 280 279 279 279 279 279 278 277
285 285 285 285 285 284 285 284 284 284 284 283 284 284 283 283 283 283 283 283 283 283 283 283 283 283 282 282 281 281 281 280 280 280 279 278 278 278 278 278 277 276
285 284 285 284 284 284 284 283 283 283 283 283 282 283 283 283 283 283 283 283 282 283 282 282 282 282 282 281 280 280 280 279 279 278 277 277 277 276 276 276 276 276
284 283 283 283 283 283 283 282 282 282 282 282 282 282 282 282 282 282 282 282 282 282 281 281 281 280 280 280 279 278 278 278 278 276 276 275 275 275 275 276 275 275
283 283 282 282 282 282 282 282 282 282 282 281 282 282 282 282 282 282 282 281 281 281 280 280 279 279 279 278 277 277 276 276 276 275 275 275 275 275 275 275 275 275
282 282 282 281 282 281 281 281 281 281 282 282 282 282 282 282 282 281 281 280 280 279 279 278 278 277 277 276 276 275 275 275 275 275 275 275 275 274 274 275 275 274
281 281 280 281 281 281 280 281 281 281 282 281 281 281 281 281 281 280 279 279 278 277 277 276 276 275 275 275 275 275 275 275 275 275 275 275 275 275 276 275 275 274
280 280 280 280 281 280 280 280 281 281 281 281 281 280 280 280 279 278 278 277 276 276 275 275 275 274 274 274 274 275 275 275 275 275 275 275 275 275 275 275 274 274
280 280 280 280 280 279 280 281 281 280 280 280 280 279 279 278 277 276 276 276 275 275 274 274 274 274 274 274 274 275 275 276 276 276 276 276 276 276 275 274 274 274
280 280 280 279 279 280 280 280 280 280 279 279 279 278 277 276 275 275 275 274 274 274 274 274 274 273 274 274 276 277 277 277 277 276 276 276 275 274 274 274 274 275
280 280 279 279 280 280 280 279 279 279 279 278 277 276 276 275 275 274 274 273 273 273 273 274 274 273 274 276 277 277 277 276 276 276 275 274 274 274 274 275 275 275
279 279 279 279 280 280 279 278 278 278 277 276 275 275 274 274 274 274 273 272 272 272 272 273 273 273 277 279 279 278 277 276 276 276 275 274 274 274 274 274 274 273
279 279 279 280 279 278 277 277 277 276 275 274 274 273 273 273 273 272 272 272 272 272 271 272 273 274 278 279 279 279 277 277 276 275 275 274 274 273 272 272 272 272
279 279 279 279 278 277 276 275 275 274 274 273 273 273 273 273 272 272 272 272 272 271 271 272 272 275 278 278 278 279 279 277 276 274 274 273 273 272 272 272 272 272
279 278 278 277 276 275 275 274 274 273 273 272 272 272 272 272 271 271 271 271 271 271 271 271 271 274 277 278 278 279 279 277 274 273 273 272 272 272 272 272 272 272
278 277 277 276 275 274 274 273 273 272 272 272 272 272 272 271 271 271 271 271 271 270 270 270 270 274 277 277 278 278 278 277 273 273 272 272 272 272 272 272 272 272
277 276 275 274 273 273 273 273 272 272 272 272 272 271 271 270 270 270 270 270 270 270 270 270 270 275 276 277 277 277 278 275 273 273 272 272 272 272 272 273 273 273
275 275 274 273 273 272 272 272 272 272 271 271 271 271 271 271 270 270 270 270 270 269 269 269 270 274 275 276 276 277 277 273 273 272 272 272 272 272 273 273 273 273
274 273 272 272 272 272 272 272 271 271 271 271 270 270 270 269 269 269 269 269 269 269 269 269 269 272 274 275 275 276 275 273 272 272 272 272 272 272 273 273 274 274
273 272 272 272 272 272 271 271 271 271 271 271 270 269 269 269 269 269 268 269 268 268 269 269 269 271 273 274 275 276 275 273 273 272 272 272 272 273 273 274 274 275
272 272 272 271 271 271 271 271 270 270 270 270 270 269 268 268 268 267 267 267 268 268 269 269 269 269 272 273 275 275 275 274 273 272 271 272 272 273 274 274 274 274
272 271 271 271 271 271 271 270 270 270 270 269 269 268 267 267 267 266 266 266 268 268 268 268 267 267 268 273 274 275 276 274 273 272 272 272 273 273 272 273 273 273
Wind_Speed
5 4 5 6 6 4 4 4 3 3 4 5 4 5 5 5 6 5 5 6 5 5 6 6 6 7 7 6 6 6 6 7 6 6 7 7 7 7 8 8 8 7
5 4 4 3 3 3 3 2 3 3 4 4 4 5 5 5 5 4 5 6 6 6 6 6 6 6 6 6 6 7 6 6 7 5 7 7 7 7 7 8 7 7
3 3 3 3 3 4 4 3 2 3 3 4 4 4 5 4 5 5 5 5 6 6 6 6 6 6 7 6 6 6 6 7 7 7 6 6 6 7 7 7 6 7
2 1 2 3 2 3 3 3 4 4 4 5 4 4 3 4 4 5 5 5 5 6 6 6 7 6 6 6 6 6 6 6 6 6 7 6 6 6 7 6 7 7
2 3 3 3 2 2 3 4 4 4 4 3 4 4 5 5 6 6 5 6 6 7 7 7 6 6 6 6 6 7 7 7 7 7 7 6 6 6 7 7 7 8
3 2 2 3 3 3 4 4 3 3 4 4 5 4 4 5 5 5 6 7 7 7 7 6 7 7 7 7 7 7 7 7 7 6 6 7 7 6 6 7 8 8
3 3 4 4 4 4 4 3 3 3 4 4 4 5 4 5 6 6 6 6 6 6 7 7 7 8 7 7 7 7 7 7 7 6 7 7 7 8 7 7 8 8
3 3 4 4 4 3 4 3 4 4 4 4 4 5 4 5 6 5 5 6 6 7 7 7 7 8 7 7 8 8 7 6 7 8 8 8 7 8 8 7 6 7
3 4 3 4 4 4 4 4 4 4 3 4 5 5 5 5 5 5 6 6 6 7 7 7 8 7 7 7 8 8 8 7 8 8 8 9 8 8 8 7 7 7
4 3 4 4 4 3 4 4 3 4 4 5 5 5 6 5 5 5 6 7 7 7 7 8 8 8 8 7 8 7 8 9 8 8 8 7 7 8 7 7 8 9
4 3 4 4 4 3 4 4 4 5 5 5 5 6 5 5 6 6 6 7 8 8 8 8 8 9 8 7 7 7 8 8 8 7 6 7 6 6 8 8 8 9
3 4 4 3 3 3 3 4 5 5 5 5 4 5 5 6 7 7 6 7 7 7 8 8 8 8 7 7 8 8 8 7 6 6 6 7 7 7 6 7 9 10
3 3 2 3 3 3 4 5 5 5 5 5 5 5 6 7 7 7 7 7 7 7 8 8 7 7 8 8 8 8 7 7 8 8 8 7 7 8 8 8 8 8
3 2 2 2 3 4 5 5 5 5 5 4 5 6 7 7 7 7 6 6 7 7 7 7 7 8 8 8 8 8 8 10 10 10 10 11 10 9 8 8 10 11
1 2 2 4 5 5 5 5 4 4 5 5 5 6 6 6 7 7 7 8 7 7 7 7 7 8 6 9 10 10 11 10 11 11 11 10 9 9 9 10 11 10
3 3 3 4 5 5 4 4 5 5 6 6 6 6 6 6 6 7 7 8 7 8 8 7 7 6 12 19 16 11 11 10 10 10 10 11 11 12 11 11 11 10
3 3 4 5 3 3 3 5 6 5 5 6 6 7 7 7 7 8 7 7 7 8 8 7 6 7 18 17 17 18 13 11 10 9 10 10 10 11 11 12 10 10
3 4 4 3 3 4 5 4 5 5 6 6 7 8 8 7 8 7 7 7 7 7 7 7 6 13 17 16 17 18 17 12 9 9 9 9 10 10 10 11 12 12
3 3 2 2 3 4 4 4 5 6 7 8 8 8 7 7 7 6 7 7 7 8 7 7 6 13 16 17 17 19 20 16 8 9 9 9 9 10 10 11 10 11
2 2 3 3 3 4 4 5 5 6 6 6 6 7 7 6 7 8 8 8 7 7 6 7 6 12 16 17 18 20 20 15 8 8 8 8 9 10 9 10 10 10
2 3 3 3 3 4 4 5 6 6 8 7 7 7 6 7 7 7 7 7 7 7 6 6 7 15 16 18 19 19 19 12 8 8 7 8 9 9 11 12 12 11
3 3 3 3 4 4 5 7 7 7 8 7 6 5 5 5 6 6 8 8 7 7 7 8 7 15 16 18 19 18 18 9 8 8 8 9 9 9 10 9 9 10
3 3 3 3 4 5 6 7 8 8 7 6 7 6 7 7 7 7 7 7 8 7 7 7 7 11 17 18 18 18 13 9 8 8 10 10 10 10 8 9 9 9
2 2 3 4 5 5 6 6 6 5 5 5 6 7 7 7 7 7 6 6 7 7 7 7 8 12 18 17 17 17 14 10 9 10 10 10 9 8 8 7 9 19
2 3 4 5 4 4 4 6 6 5 5 5 5 5 5 5 5 6 6 6 6 7 8 8 8 10 16 17 17 17 14 9 9 9 9 9 8 7 8 10 10 10
2 4 5 5 5 4 4 4 4 5 6 6 5 4 5 5 5 5 6 6 6 5 5 6 8 8 11 18 17 17 18 12 9 8 8 8 8 12 12 9 9 9
Wind_Direction
255 251 248 253 256 248 260 275 284 290 304 311 305 298 306 309 321 328 321 323 324 327 329 332 332 331 327 324 322 319 313 306 305 303 303 305 304 307 308 308 307 305
262 249 253 258 277 277 267 242 275 294 301 308 309 313 315 324 319 327 324 327 331 331 330 329 326 321 321 322 320 318 310 310 308 307 308 310 307 309 308 310 311 311
273 281 266 268 273 304 315 322 329 320 329 316 318 327 320 320 322 329 330 332 329 325 326 324 323 323 320 317 315 312 308 309 309 311 312 309 309 311 311 310 313 312
278 261 295 314 326 313 328 352 345 354 347 346 333 315 318 316 329 331 331 328 327 327 326 327 324 319 318 315 314 310 309 308 307 312 314 314 313 313 310 313 312 313
322 336 346 334 327 350 16 19 4 346 337 314 319 331 336 341 338 332 332 331 335 331 327 323 322 321 320 319 318 317 318 318 315 317 318 317 314 314 312 316 313 310
11 360 355 1 6 24 25 23 348 336 328 340 331 325 336 334 335 334 334 335 332 325 322 324 325 324 323 321 322 321 320 320 319 320 320 317 314 312 312 310 308 306
354 353 358 11 31 37 43 6 342 332 333 323 329 335 339 339 340 337 334 329 325 324 327 327 327 325 325 325 325 323 322 320 320 323 320 315 312 312 309 308 307 306
351 4 30 31 46 28 21 359 346 344 333 337 345 329 349 337 334 332 328 326 327 328 329 327 326 328 328 331 329 326 325 326 324 322 318 311 312 311 313 312 313 313
22 25 22 36 41 16 9 353 343 333 343 351 348 340 336 338 331 328 327 328 331 332 332 332 333 332 334 334 329 327 327 326 321 319 315 313 315 314 318 323 325 326
32 8 38 24 28 358 1 339 335 346 352 357 347 337 338 333 331 333 338 338 336 337 337 336 337 337 335 332 327 327 327 322 319 315 313 315 318 322 325 330 329 326
17 16 28 19 9 358 357 351 357 357 356 351 345 342 336 336 339 345 342 343 342 340 339 340 340 336 331 329 328 325 321 318 317 318 320 321 321 322 327 331 331 330
6 12 13 12 10 11 7 4 6 1 349 344 349 336 339 346 344 345 346 342 342 340 341 341 336 330 330 331 330 325 319 317 318 322 325 324 324 324 332 338 335 331
1 4 5 31 27 22 18 17 3 347 345 341 336 343 349 345 347 348 345 345 341 344 344 338 332 334 338 334 324 316 318 327 332 333 328 326 329 339 341 337 330 323
6 3 51 40 34 31 25 8 350 338 334 334 348 355 352 350 349 346 340 344 347 346 341 338 342 345 336 320 319 329 338 340 340 339 337 336 339 340 336 327 327 329
23 57 43 43 33 32 13 348 329 327 342 352 355 355 353 351 346 345 348 351 351 347 347 349 350 340 322 329 342 344 348 345 342 339 338 336 332 331 330 332 332 332
76 51 47 42 37 14 346 326 336 348 351 354 355 353 353 348 348 356 357 351 347 350 355 351 343 327 335 345 349 351 350 342 337 336 338 332 331 333 333 336 337 332
59 49 46 43 16 347 338 346 347 348 354 353 355 355 354 353 357 358 354 347 353 355 348 339 334 328 340 349 353 354 348 341 342 342 337 334 334 338 338 332 325 319
58 54 49 24 4 356 351 340 346 353 356 357 356 358 356 357 358 351 344 348 355 350 338 332 335 334 344 351 352 348 347 349 351 345 340 339 340 337 329 324 324 322
54 60 46 20 8 352 341 347 354 357 360 359 2 356 352 352 348 344 346 353 349 341 337 337 338 332 347 349 348 348 349 352 354 348 340 337 335 326 319 319 320 321
55 53 39 18 2 349 350 358 1 4 356 356 356 353 351 346 344 348 349 350 344 337 340 333 328 335 347 347 350 350 347 354 351 341 337 336 327 313 311 314 310 308
48 44 34 10 0 357 358 2 4 359 358 357 355 347 345 347 345 347 344 338 339 338 333 331 327 340 346 350 350 348 349 357 345 340 336 320 302 302 314 311 305 296
50 40 28 13 9 6 7 3 2 3 354 346 342 339 344 342 346 349 340 339 339 335 331 330 325 339 348 350 348 347 353 354 343 335 321 301 298 295 292 297 296 297
40 37 27 29 21 15 8 2 357 351 344 344 340 346 346 349 350 345 339 334 330 325 330 325 320 338 350 348 348 349 352 346 336 326 316 310 301 291 290 294 290 311
41 33 39 36 30 19 5 353 346 336 337 342 346 346 346 346 344 338 329 325 318 317 323 323 332 346 346 346 349 350 350 342 333 325 310 304 290 291 287 281 311 325
50 43 43 36 31 16 4 346 339 336 331 338 345 347 339 336 339 323 314 308 305 307 324 337 346 342 341 344 349 349 348 341 334 315 300 302 301 309 322 321 318 327
56 52 46 34 26 4 355 336 329 332 341 340 341 345 332 330 322 313 310 304 302 312 329 352 347 337 333 342 348 348 347 345 334 310 304 304 325 334 325 326 329 327